Location: Grand Lay
(47.3253°N, 0.9468°E)
Time: 19:30:15
(UTC+00:00)

Cosmos 1340 Rocket - Pass Details

Date: 18 January 2026
Orbit: 486 x 516 km, 81.2° (Epoch: 13 February)

Event Time Altitude Azimuth Distance (km) Brightness Sun altitude
Rises 06:51:01 0° 174° (S) 2,550 6.6 -7.8°
Reaches altitude 10° 06:53:10 10° 167° (SSE) 1,678 5.8 -7.4°
Maximum altitude 06:56:39 42° 95° (E) 716 4.1 -6.9°
Drops below altitude 10° 07:00:11 10° 24° (NNE) 1,707 5.4 -6.4°
Sets 07:02:23 0° 18° (NNE) 2,602 6.2 -6.0°
